Location: Boquerón
(10.0687°N, 67.9212°W)
Time: 10:38:28
(UTC+00:00)

Cosmos 1378 - Pass Details

Date: 29 May 2024
Orbit: 417 x 417 km, 82.5° (Epoch: 16 June)

Event Time Altitude Azimuth Distance (km) Brightness Sun altitude
Rises 23:16:20 0° 176° (S) 2,369 6.3 -7.0°
Reaches altitude 10° 23:18:23 10° 171° (S) 1,505 5.2 -7.4°
Maximum altitude 23:21:35 53° 94° (E) 525 2.9 -8.2°
Drops below altitude 10° 23:24:47 10° 16° (NNE) 1,503 5.7 -8.9°
Sets 23:26:50 0° 11° (N) 2,366 6.7 -9.3°
